カタログに戻る

STARLINK-36426

運用中通信SSO
NORAD 67560·PAYLOAD·🇺🇸 United States

打ち上げ Jan 22, 2026 から Vandenberg Space Force Base

Loading…

次のパス (今後24時間)

TLE

最新Source: CelesTrak SupGP

元期: Sep 15, 2026, 04:15 UTC

1 67560C 26014AA  26258.17756944  .00033730  00000+0  10464-2 0  2583
2 67560  97.2847 143.7053 0001551  92.7096  75.0521 15.33442552    16

AllMySatでSTARLINK-36426をリアルタイム追跡

Download on the App Store